Regional Weather Roundup
Issued by NWS

Home | Current Version | Previous Version | Text Only | Print | Product List | Glossary On
Versions: 1 2 3 4 5 6 7 8 9 10 11 12 13 14 15 16 17 18 19 20 21 22 23 24 25 26 27 28 29 30 31 32 33 34 35 36 37 38 39 40 41 42 43 44 45 46 47 48 49 50
000
ASUS43 KDMX 190806
RWRIA

WEATHER ROUNDUP FOR IOWA
NATIONAL WEATHER SERVICE DES MOINES IA
300 AM CDT THU OCT 19 2017

NOTE: "FAIR" INDICATES FEW OR NO CLOUDS BELOW 12,000 FEET WITH NO
SIGNIFICANT WEATHER AND/OR OBSTRUCTIONS TO VISIBILITY.

* - THESE STATIONS ARE NOT NWS STATIONS...THUS NOT UNDER NWS
QUALITY CONTROL.  THEY ALSO DO NOT REPORT WEATHER SUCH
AS PRECIPITATION OR FOG.

IAZ001>003-012>014-020>022-031>034-043>046-190900-
   NORTHWEST IOWA

CITY           SKY/WX    TMP DP  RH WIND       PRES   REMARKS
CARROLL *      CLOUDY    52  52 100 CALM      30.07R
CHEROKEE *     CLOUDY    39  39  99 CALM      30.08R
DENISON *      CLOUDY    41  41 100 CALM      30.08S
LE MARS *      CLOUDY    39  37  93 N6        30.06F FOG     WCI  35
ORANGE CITY *  CLOUDY    48  36  61 CALM      30.07S
SHELDON *      CLOUDY    36  34  93 CALM      30.05S
SIOUX CITY     CLOUDY    39  38  96 W3        30.06S
SPENCER        CLOUDY    37  35  92 CALM      30.06F
STORM LAKE *   CLOUDY    46  36  66 NE5       30.07S
$$

IAZ055>058-069>071-079>083-090>094-190900-
   SOUTHWEST IOWA

CITY           SKY/WX    TMP DP  RH WIND       PRES   REMARKS
ATLANTIC *     CLEAR     43  41  93 N5        30.06R
AUDUBON *      CLOUDY    39  37  93 CALM      30.08R
CLARINDA *       N/A     43  43 100 CALM      30.07S
COUNCIL BLFS * CLEAR     54  48  82 E5        30.05R
CRESTON *      CLEAR     54  48  82 CALM      30.07S
HARLAN  *      CLOUDY    43  43 100 N5        30.09R
LAMONI         CLEAR     50  47  89 CALM      30.06S
RED OAK *      CLEAR     45  45 100 CALM      30.05S
SHENANDOAH *   CLEAR     46  46 100 CALM      30.05S
$$

IAZ047>049-059>061-072>074-084-190900-
   CENTRAL IOWA

CITY           SKY/WX    TMP DP  RH WIND       PRES   REMARKS
AMES           CLEAR     44  43  96 NW3       30.06R
ANKENY *       CLOUDY    46  45  93 CALM      30.08R FOG
BOONE *        CLOUDY    48  39  71 NE6       30.06R
CHARITON *     CLEAR     52  48  87 CALM      30.05S
DES MOINES     CLOUDY    52  48  86 CALM      30.06R
KNOXVILLE *    CLEAR     50  46  87 CALM      30.04S
MARSHALLTOWN   CLOUDY    48  40  73 N6        30.06R
NEWTON *       CLEAR     52  46  82 NE6       30.06R
PELLA *        CLEAR     49  48  95 CALM      30.07R
PERRY *          N/A     41  41  99 NW3       30.07R
$$

IAZ004>006-015-016-023>025-035-036-190900-
   NORTH CENTRAL IOWA

CITY           SKY/WX    TMP DP  RH WIND       PRES   REMARKS
ALGONA *       CLOUDY    39  37  93 CALM      30.06F
CLARION *      CLOUDY    41  37  87 NE3       30.07R
ESTHERVILLE    CLOUDY    37  35  92 CALM      30.06S
FORT DODGE *   CLOUDY    43  39  86 N3        30.08R
MASON CITY     CLOUDY    39  33  79 W3        30.07F
FOREST CITY *    N/A     41  36  81 CALM      30.06S
WEBSTER CITY * PTCLDY    39  36  87 CALM      30.05R
IOWA FALLS *     N/A     47  36  66 CALM      30.07R
$$

IAZ007>011-017>019-026>030-037>042-050>054-066-190900-
   NORTHEAST IOWA

CITY           SKY/WX    TMP DP  RH WIND       PRES   REMARKS
CEDAR RAPIDS   CLEAR     50  46  86 N5        30.05R
CHARLES CITY * CLOUDY    45  32  61 N5        30.06S
CLINTON *      CLEAR     50  45  83 NW7       30.06R
DECORAH *      CLOUDY    48  30  49 NW5       30.05R
DUBUQUE        CLOUDY    50  44  80 N3        30.06R
MONTICELLO *   CLOUDY    45  45 100 CALM      30.06R
OELWEIN *      CLOUDY    48  34  57 NE7       30.07R
WATERLOO       CLOUDY    43  40  89 CALM      30.06R
$$

IAZ064-065-067-068-078-190900-
   EAST CENTRAL IOWA

CITY           SKY/WX    TMP DP  RH WIND       PRES   REMARKS
DAVENPORT      CLEAR     53  45  74 SW5       30.07R
IOWA CITY      CLEAR     48  44  86 CALM      30.07R
MT. PLEASANT * CLEAR     50  45  84 S5        30.06S
MUSCATINE *    CLEAR     48  45  87 CALM      30.06R
QUAD CITIES    CLEAR     55  44  66 W3        30.05R
$$

IAZ062-063-075>077-085>089-095>099-190900-
   SOUTHEAST IOWA

CITY           SKY/WX    TMP DP  RH WIND       PRES   REMARKS
BURLINGTON     CLEAR     53  46  77 SW5       30.06R
FAIRFIELD *    CLEAR     52  46  82 SW7       30.05S
FORT MADISON * CLEAR     55  46  71 SW5       30.07S
KEOKUK *       CLEAR     54  46  76 SW5       30.07R
OSKALOOSA *      N/A     49  46  90 SW3       30.06R
CENTERVILLE *    N/A     48  48 100 CALM      30.07F
OTTUMWA        CLEAR     49  46  90 SW3       30.05S
WASHINGTON *   CLEAR     52  48  87 SW6       30.06S
$$

ABBREVIATIONS USED IN REMARKS
   TC - TEMPERATURES IN CELSIUS
  WCI - WIND CHILL INDEX
   HX - HEAT INDEX
  VSB - VISIBILITY
$$





USA.gov is the U.S. government's official web portal to all federal, state and local government web resources and services.